Previsão horária em Abdrashitovo

Hoje, 30 Setembro, Quarta-feira

Tempo Temperatura Precipitação Vento Pressão Humidade
00:00 +9°C° 0 mm 0 m/s 755 mmHg 89%
01:00 +9°C° 0 mm 0 m/s 755 mmHg 89%
02:00 +9°C° 0 mm 0 m/s 755 mmHg 90%
03:00 +9°C° 0 mm 0 m/s 756 mmHg 90%
04:00 +8°C° 0 mm 0 m/s 756 mmHg 92%
05:00 +8°C° 0 mm 0 m/s 756 mmHg 92%
06:00 +8°C° 0 mm 0 m/s 755 mmHg 92%
07:00 +8°C° 0 mm 0 m/s 755 mmHg 93%
08:00 +10°C° 0 mm 0 m/s 755 mmHg 87%
09:00 +12°C° 0 mm 0 m/s 755 mmHg 82%
10:00 +14°C° 0 mm 1 m/s 755 mmHg 76%
11:00 +15°C° 0 mm 1 m/s 755 mmHg 71%
12:00 +16°C° 0 mm 1 m/s 755 mmHg 66%
13:00 +18°C° 0 mm 1 m/s 755 mmHg 61%
14:00 +18°C° 0 mm 1 m/s 755 mmHg 62%
15:00 +18°C° 0 mm 1 m/s 755 mmHg 64%
16:00 +18°C° 0 mm 1 m/s 755 mmHg 65%
17:00 +15°C° 0 mm 1 m/s 755 mmHg 71%
18:00 +14°C° 0 mm 1 m/s 755 mmHg 77%
19:00 +12°C° 0 mm 1 m/s 754 mmHg 82%
20:00 +12°C° 0 mm 1 m/s 755 mmHg 84%
21:00 +11°C° 0 mm 1 m/s 755 mmHg 86%
22:00 +11°C° 0 mm 1 m/s 755 mmHg 87%
23:00 +10°C° 0 mm 0 m/s 755 mmHg 88%

Amanhã, 1 Outubro, Quinta-feira

Tempo Temperatura Precipitação Vento Pressão Humidade
00:00 +9°C° 0 mm 0 m/s 755 mmHg 89%
01:00 +9°C° 0 mm 0 m/s 755 mmHg 90%
02:00 +9°C° 0 mm 0 m/s 755 mmHg 90%
03:00 +8°C° 0 mm 0 m/s 755 mmHg 91%
04:00 +8°C° 0 mm 0 m/s 755 mmHg 91%
05:00 +8°C° 0 mm 0 m/s 755 mmHg 92%
06:00 +8°C° 0 mm 0 m/s 755 mmHg 92%
07:00 +8°C° 0 mm 0 m/s 755 mmHg 92%
08:00 +10°C° 0 mm 0 m/s 755 mmHg 87%
09:00 +11°C° 0 mm 0 m/s 755 mmHg 81%
10:00 +13°C° 0 mm 0 m/s 755 mmHg 76%
11:00 +14°C° 0 mm 0 m/s 755 mmHg 71%
12:00 +15°C° 0 mm 0 m/s 754 mmHg 66%
13:00 +18°C° 0 mm 1 m/s 754 mmHg 61%
14:00 +18°C° 0 mm 1 m/s 754 mmHg 62%
15:00 +16°C° 0 mm 0 m/s 754 mmHg 62%
16:00 +16°C° 0 mm 0 m/s 754 mmHg 63%
17:00 +14°C° 0 mm 0 m/s 754 mmHg 68%
18:00 +13°C° 0 mm 0 m/s 754 mmHg 73%
19:00 +11°C° 0 mm 0 m/s 754 mmHg 79%
20:00 +11°C° 0 mm 0 m/s 754 mmHg 80%
21:00 +10°C° 0 mm 0 m/s 754 mmHg 82%
22:00 +10°C° 0 mm 0 m/s 754 mmHg 83%
23:00 +10°C° 0 mm 0 m/s 754 mmHg 84%

Depois de amanhã, 2 Outubro, Sexta-feira

Tempo Temperatura Precipitação Vento Pressão Humidade
00:00 +9°C° 0 mm 0 m/s 753 mmHg 85%
01:00 +9°C° 0 mm 0 m/s 753 mmHg 85%
02:00 +9°C° 0 mm 0 m/s 753 mmHg 86%
03:00 +8°C° 0 mm 0 m/s 753 mmHg 87%
04:00 +9°C° 0 mm 1 m/s 753 mmHg 87%
05:00 +9°C° 0 mm 1 m/s 753 mmHg 88%
06:00 +9°C° 0 mm 1 m/s 753 mmHg 88%
07:00 +9°C° 0 mm 1 m/s 753 mmHg 88%
08:00 +10°C° 0 mm 1 m/s 753 mmHg 82%
09:00 +12°C° 0 mm 1 m/s 753 mmHg 76%
10:00 +14°C° 0 mm 1 m/s 753 mmHg 70%
11:00 +15°C° 0 mm 1 m/s 753 mmHg 66%
12:00 +16°C° 0 mm 1 m/s 752 mmHg 62%
13:00 +18°C° 0 mm 1 m/s 752 mmHg 58%
14:00 +18°C° 0 mm 1 m/s 752 mmHg 61%
15:00 +17°C° 0 mm 2 m/s 752 mmHg 63%
16:00 +17°C° 0 mm 2 m/s 752 mmHg 65%
17:00 +15°C° 0 mm 2 m/s 752 mmHg 72%
18:00 +14°C° 0 mm 2 m/s 752 mmHg 78%
19:00 +12°C° 0 mm 2 m/s 752 mmHg 85%
20:00 +12°C° 0 mm 2 m/s 751 mmHg 87%
21:00 +10°C° 0 mm 2 m/s 751 mmHg 88%
22:00 +11°C° 0 mm 1 m/s 751 mmHg 90%
23:00 +10°C° 0 mm 1 m/s 751 mmHg 91%

3 Outubro, Sábado

Tempo Temperatura Precipitação Vento Pressão Humidade
00:00 +10°C° 0 mm 1 m/s 751 mmHg 92%
01:00 +10°C° 0 mm 1 m/s 751 mmHg 93%
02:00 +10°C° 0 mm 1 m/s 751 mmHg 93%
03:00 +9°C° 0 mm 2 m/s 751 mmHg 94%
04:00 +8°C° 0 mm 2 m/s 751 mmHg 94%
05:00 +8°C° 0 mm 2 m/s 751 mmHg 94%
06:00 +8°C° 0 mm 2 m/s 751 mmHg 95%
07:00 +8°C° 0 mm 2 m/s 750 mmHg 95%
08:00 +9°C° 0 mm 2 m/s 750 mmHg 90%
09:00 +11°C° 0 mm 3 m/s 750 mmHg 84%
10:00 +12°C° 0 mm 3 m/s 750 mmHg 79%
11:00 +13°C° 0 mm 3 m/s 750 mmHg 76%
12:00 +13°C° 0 mm 3 m/s 750 mmHg 73%
13:00 +14°C° 0 mm 4 m/s 750 mmHg 70%
14:00 +13°C° 0 mm 4 m/s 750 mmHg 72%
15:00 +12°C° 0 mm 4 m/s 750 mmHg 74%
16:00 +11°C° 0 mm 4 m/s 750 mmHg 76%
17:00 +10°C° 0 mm 3 m/s 750 mmHg 78%
18:00 +10°C° 0 mm 2 m/s 751 mmHg 80%
19:00 +9°C° 0 mm 2 m/s 751 mmHg 82%
20:00 +9°C° 0 mm 2 m/s 751 mmHg 83%
21:00 +9°C° 0 mm 3 m/s 752 mmHg 85%
22:00 +9°C° 0 mm 3 m/s 752 mmHg 86%
23:00 +8°C° 0 mm 3 m/s 752 mmHg 85%

4 Outubro, Domingo

Tempo Temperatura Precipitação Vento Pressão Humidade
00:00 +6°C° 0 mm 4 m/s 752 mmHg 84%
01:00 +5°C° 0 mm 4 m/s 753 mmHg 84%
02:00 +5°C° 0 mm 4 m/s 753 mmHg 80%
03:00 +4°C° 0 mm 4 m/s 753 mmHg 77%
04:00 +4°C° 0 mm 4 m/s 753 mmHg 74%
05:00 +4°C° 0 mm 4 m/s 753 mmHg 75%
06:00 +3°C° 0 mm 4 m/s 754 mmHg 76%
07:00 +1°C° 0 mm 4 m/s 754 mmHg 77%
08:00 +3°C° 0 mm 4 m/s 754 mmHg 72%
09:00 +3°C° 0 mm 5 m/s 754 mmHg 67%
10:00 +5°C° 0 mm 5 m/s 754 mmHg 63%
11:00 +5°C° 0 mm 4 m/s 754 mmHg 59%
12:00 +6°C° 0 mm 4 m/s 754 mmHg 55%
13:00 +7°C° 0 mm 4 m/s 754 mmHg 51%
14:00 +6°C° 0 mm 4 m/s 754 mmHg 52%
15:00 +6°C° 0 mm 4 m/s 754 mmHg 52%
16:00 +7°C° 0 mm 3 m/s 754 mmHg 52%
17:00 +5°C° 0 mm 3 m/s 754 mmHg 56%
18:00 +5°C° 0 mm 2 m/s 754 mmHg 60%
19:00 +4°C° 0 mm 2 m/s 755 mmHg 63%
20:00 +3°C° 0 mm 2 m/s 755 mmHg 65%
21:00 +4°C° 0 mm 1 m/s 755 mmHg 66%
22:00 +3°C° 0 mm 1 m/s 755 mmHg 68%
23:00 +3°C° 0 mm 1 m/s 755 mmHg 69%

5 Outubro, Segunda-feira

Tempo Temperatura Precipitação Vento Pressão Humidade
00:00 +3°C° 0 mm 1 m/s 755 mmHg 70%
01:00 +1°C° 0 mm 0 m/s 755 mmHg 71%
02:00 +1°C° 0 mm 0 m/s 755 mmHg 71%
03:00 +1°C° 0 mm 0 m/s 755 mmHg 72%
04:00 +1°C° 0 mm 0 m/s 755 mmHg 72%
05:00 +1°C° 0 mm 0 m/s 755 mmHg 71%
06:00 +1°C° 0 mm 0 m/s 755 mmHg 70%
07:00 +1°C° 0 mm 0 m/s 755 mmHg 70%
08:00 +4°C° 0 mm 1 m/s 755 mmHg 64%
09:00 +5°C° 0 mm 1 m/s 755 mmHg 58%
10:00 +7°C° 0 mm 1 m/s 754 mmHg 53%
11:00 +7°C° 0 mm 2 m/s 754 mmHg 50%
12:00 +7°C° 0 mm 2 m/s 754 mmHg 47%
13:00 +8°C° 0 mm 3 m/s 754 mmHg 43%
14:00 +8°C° 0 mm 3 m/s 754 mmHg 46%
15:00 +8°C° 0 mm 3 m/s 753 mmHg 49%
16:00 +8°C° 0 mm 3 m/s 753 mmHg 52%
17:00 +7°C° 0 mm 3 m/s 753 mmHg 59%
18:00 +4°C° 0 mm 3 m/s 753 mmHg 65%
19:00 +3°C° 0 mm 3 m/s 753 mmHg 72%
20:00 +4°C° 0 mm 2 m/s 753 mmHg 74%
21:00 +3°C° 0 mm 2 m/s 753 mmHg 77%
22:00 +3°C° 0 mm 2 m/s 753 mmHg 80%
23:00 +2°C° 0 mm 2 m/s 753 mmHg 81%
Mostrar mais